Location: Москва
(55.7504°N, 37.6175°E)
Time: 20:44:28
(UTC+03:00)

Nauka - Pass Details

Date: 02 October 2021
Orbit: 417 x 423 km, 51.6° (Epoch: 26 October)

Event Time Altitude Azimuth Distance (km) Brightness Sun altitude
Rises 18:56:35 0° 273° (W) 2,367 ? -8.5°
Reaches altitude 10° 18:58:55 10° 259° (W) 1,501 ? -8.8°
Maximum altitude 19:01:42 24° 203° (SSW) 909 ? -9.2°
Drops below altitude 10° 19:04:29 10° 147° (SSE) 1,499 ? -9.6°
Enters shadow 19:05:10 - 141° (SE) 1,738 ? -9.7°
